View from above orbital plane
|
View from above satellite
|
Ground track
|
The orbit data is extracted from the following two-line orbital elements,
1 45534C 20025D 21020.10417202 -.00005862 00000-0 -39282-3 0 207
2 45534 53.0267 241.9399 0001762 67.7150 61.0306 15.06399507 17
Epoch (UTC): | 20 January 2021 02:30:00 |
Eccentricity: | 0.0001762 |
inclination: | 53.0267° |
perigee height: | 546 km |
apogee height: | 548 km |
right ascension of ascending node: | 241.9399° |
argument of perigee: | 67.7150° |
revolutions per day: | 15.06399507 |
mean anomaly at epoch: | 61.0306° |
orbit number at epoch: | 1 |
The dashed part of the orbit path shows where the satellite is in the earth's shadow,
|
|